Total_Precipitation_Accumulation
0.03 0.05 0.08 0.13 0.14 0.16 0.19 0.25 0.26 0.28 0.28 0.35 0.43 0.58 0.81 0.96 1.16 1.17 1.21 1.35 1.49 1.77 1.96 2.30 2.67 2.98 3.45 3.46 3.34 3.43 3.59 3.79 3.90 4.17 4.27 4.50 4.85 5.11 5.23 5.23 5.12 5.11 4.99 5.09
0.06 0.08 0.09 0.12 0.12 0.14 0.20 0.32 0.35 0.32 0.29 0.38 0.54 0.69 0.88 1.03 1.12 1.10 1.21 1.38 1.50 1.93 2.30 2.47 2.68 3.11 3.55 3.69 3.68 3.71 3.91 4.23 4.44 4.69 5.15 5.43 5.70 5.97 6.15 6.14 5.69 5.48 5.35 5.25
0.07 0.08 0.07 0.09 0.10 0.12 0.15 0.23 0.28 0.30 0.30 0.41 0.61 0.90 1.05 1.15 1.28 1.45 1.65 1.81 1.92 2.15 2.52 2.58 2.66 3.04 3.36 3.54 3.64 3.77 4.04 4.48 5.02 5.43 5.90 6.28 6.42 6.45 6.32 6.04 5.90 5.74 5.55 5.39
0.06 0.05 0.05 0.08 0.11 0.13 0.16 0.17 0.25 0.25 0.32 0.46 0.58 1.05 1.36 1.45 1.58 1.85 2.03 2.01 2.11 2.27 2.47 2.56 2.70 2.96 3.27 3.49 3.63 3.99 4.53 5.17 5.71 6.16 6.73 7.22 7.28 7.07 6.76 6.32 5.89 5.62 5.36 5.03
0.07 0.07 0.08 0.09 0.11 0.14 0.15 0.13 0.21 0.25 0.29 0.41 0.57 0.98 1.77 1.89 1.92 2.14 2.31 2.07 2.05 2.05 2.13 2.37 2.53 2.72 3.14 3.35 3.58 3.95 4.57 5.29 5.96 6.74 7.42 7.86 7.73 7.37 6.93 6.26 5.67 5.20 4.81 4.44
0.08 0.07 0.08 0.08 0.09 0.12 0.12 0.14 0.19 0.24 0.31 0.51 0.52 0.86 1.64 2.05 2.18 2.29 2.20 2.00 1.93 1.84 1.86 2.00 2.15 2.41 2.73 3.04 3.35 3.79 4.46 5.19 5.82 6.41 6.91 7.13 7.01 6.78 6.25 5.56 4.93 4.52 4.19 3.84
0.12 0.11 0.09 0.07 0.08 0.12 0.14 0.18 0.43 0.61 0.68 0.69 0.54 0.85 1.56 1.84 1.96 1.89 1.83 1.86 1.73 1.78 1.75 1.76 1.86 2.09 2.44 2.63 3.02 3.47 3.92 4.57 4.99 5.30 5.67 5.83 5.87 5.64 5.31 4.82 4.35 3.89 3.40 3.05
0.26 0.20 0.12 0.08 0.08 0.13 0.15 0.17 0.50 0.81 0.78 0.76 0.73 1.18 1.70 1.72 1.66 1.56 1.50 1.55 1.58 1.63 1.66 1.68 1.81 2.00 2.29 2.43 2.62 2.82 3.11 3.49 3.65 3.69 3.94 4.19 4.21 4.15 4.00 3.71 3.37 3.07 2.71 2.35
0.37 0.26 0.13 0.08 0.07 0.10 0.15 0.16 0.23 0.46 0.54 0.88 1.15 1.57 2.00 1.82 1.74 1.66 1.62 1.48 1.44 1.42 1.48 1.63 1.73 1.75 1.82 1.90 2.00 2.09 2.28 2.44 2.51 2.60 2.68 2.83 2.85 2.84 2.75 2.57 2.31 2.11 1.96 1.73
0.34 0.29 0.15 0.09 0.08 0.10 0.13 0.18 0.28 0.50 0.89 1.15 1.40 1.98 2.55 2.39 2.00 1.72 1.53 1.34 1.25 1.30 1.38 1.52 1.62 1.60 1.61 1.60 1.69 1.76 1.83 1.89 1.92 1.99 1.97 1.94 1.97 1.98 1.96 1.81 1.72 1.63 1.50 1.41
0.29 0.34 0.20 0.14 0.17 0.18 0.19 0.25 0.36 0.54 0.68 1.11 1.61 2.35 2.44 2.59 2.44 1.98 1.65 1.49 1.39 1.32 1.31 1.41 1.39 1.39 1.38 1.39 1.45 1.52 1.52 1.50 1.52 1.51 1.51 1.48 1.44 1.45 1.51 1.51 1.42 1.36 1.29 1.18
0.30 0.42 0.40 0.26 0.20 0.19 0.20 0.26 0.39 0.76 0.84 0.85 1.51 2.53 2.38 2.61 2.66 2.35 2.04 1.86 1.74 1.46 1.36 1.36 1.29 1.25 1.20 1.21 1.24 1.31 1.30 1.29 1.34 1.27 1.20 1.21 1.20 1.20 1.24 1.25 1.15 1.10 1.11 1.03
0.31 0.50 0.85 0.82 0.61 0.35 0.27 0.29 0.35 0.47 0.72 0.94 1.57 2.70 2.69 2.52 2.53 2.46 2.18 2.06 2.12 1.94 1.71 1.58 1.39 1.30 1.25 1.21 1.16 1.10 1.11 1.11 1.13 1.11 1.08 1.07 1.08 1.10 1.09 1.09 1.07 1.02 1.01 0.98
0.25 0.52 1.06 1.42 1.04 0.63 0.45 0.34 0.34 0.44 0.81 1.03 1.42 2.13 2.43 2.45 2.49 2.51 2.55 2.52 2.55 2.26 1.94 1.74 1.50 1.40 1.36 1.26 1.18 1.12 1.13 1.07 1.00 0.99 0.98 1.00 1.01 1.03 1.01 1.04 1.10 1.08 0.99 0.91
0.38 0.77 0.77 0.69 0.61 0.53 0.45 0.43 0.42 0.43 0.56 0.92 1.34 1.75 2.17 2.29 2.42 2.66 2.80 2.70 2.48 2.12 1.87 1.78 1.64 1.54 1.48 1.37 1.31 1.19 1.12 1.03 0.98 0.93 0.92 0.91 0.89 0.89 0.88 0.94 0.98 1.01 0.98 0.91
0.43 0.73 0.74 0.67 0.53 0.57 0.54 0.55 0.57 0.55 0.61 0.90 1.32 1.94 2.26 2.45 2.57 2.59 2.54 2.56 2.54 2.20 1.94 1.84 1.74 1.64 1.60 1.49 1.43 1.34 1.24 1.17 1.07 0.99 1.00 0.94 0.91 0.87 0.86 0.85 0.87 0.86 0.80 0.78
0.43 0.70 1.01 0.98 0.60 0.77 1.09 0.89 0.75 0.78 0.81 1.01 1.39 1.77 1.92 2.08 2.20 2.42 2.55 2.46 2.46 2.24 2.01 1.89 1.88 1.86 1.79 1.73 1.63 1.49 1.33 1.25 1.05 0.94 0.92 0.91 0.89 0.84 0.80 0.75 0.74 0.75 0.79 0.76
0.37 0.70 0.94 0.95 1.08 1.53 1.27 0.79 0.71 0.84 0.90 0.91 1.10 1.24 1.46 1.64 1.84 2.09 2.32 2.43 2.46 2.30 2.17 2.05 1.95 1.90 1.83 1.74 1.62 1.44 1.24 1.09 0.93 0.85 0.84 0.80 0.77 0.76 0.78 0.72 0.70 0.73 0.77 0.74
0.28 0.61 0.93 1.07 1.37 1.51 1.24 0.78 0.69 0.99 1.19 0.91 0.96 0.99 1.02 1.13 1.41 1.88 1.99 2.05 2.15 2.18 2.15 2.05 1.92 1.85 1.75 1.55 1.38 1.27 1.08 0.96 0.89 0.82 0.80 0.72 0.65 0.71 0.73 0.70 0.70 0.74 0.71 0.70
0.34 0.55 0.93 1.14 1.55 1.82 1.53 0.72 0.49 0.83 1.61 1.13 1.01 1.07 1.05 1.22 1.55 1.60 1.49 1.54 1.67 1.80 1.89 1.85 1.69 1.57 1.52 1.34 1.17 1.11 1.00 0.89 0.86 0.79 0.76 0.69 0.68 0.71 0.75 0.76 0.74 0.67 0.68 0.65
0.70 0.83 1.06 1.26 1.58 1.61 0.88 0.54 0.69 1.51 1.85 1.28 1.04 1.12 1.29 1.52 1.48 1.14 0.99 1.16 1.33 1.44 1.58 1.57 1.49 1.42 1.29 1.12 1.08 1.13 1.09 0.95 0.79 0.68 0.67 0.70 0.72 0.68 0.65 0.66 0.68 0.66 0.59 0.61
0.85 1.06 1.21 1.34 1.71 1.69 0.73 0.65 1.15 1.36 1.06 0.93 0.93 0.97 1.01 1.02 0.92 0.82 0.82 0.96 1.06 1.17 1.26 1.35 1.40 1.33 1.21 1.11 1.10 1.12 1.10 0.90 0.77 0.74 0.73 0.70 0.66 0.56 0.52 0.61 0.64 0.60 0.60 0.62
0.78 0.97 1.12 1.30 1.53 1.18 0.67 0.64 0.70 0.71 0.81 0.81 0.86 0.85 0.76 0.74 0.77 0.74 0.80 0.93 1.03 1.05 1.06 1.12 1.19 1.18 1.13 1.07 1.08 1.09 1.00 0.82 0.77 0.82 0.74 0.68 0.59 0.53 0.52 0.57 0.58 0.56 0.56 0.54
0.80 0.65 0.77 0.92 0.90 0.76 0.66 0.60 0.62 0.69 0.70 0.71 0.77 0.76 0.69 0.64 0.65 0.69 0.80 0.90 0.96 0.93 0.92 0.98 1.05 1.07 1.04 0.96 0.94 0.96 0.87 0.83 0.85 0.84 0.75 0.66 0.57 0.50 0.47 0.47 0.45 0.45 0.46 0.47
0.77 0.65 0.79 0.95 0.91 0.84 0.78 0.68 0.66 0.71 0.74 0.69 0.73 0.75 0.67 0.59 0.62 0.66 0.78 0.80 0.82 0.84 0.85 0.89 0.99 0.99 0.89 0.80 0.76 0.73 0.78 0.84 0.88 0.80 0.68 0.62 0.54 0.46 0.43 0.38 0.32 0.30 0.31 0.30
0.60 0.67 0.80 0.98 0.89 0.91 0.84 0.64 0.61 0.77 0.90 0.83 0.80 0.74 0.66 0.61 0.63 0.64 0.67 0.70 0.70 0.74 0.77 0.82 0.82 0.80 0.72 0.65 0.63 0.60 0.66 0.72 0.72 0.67 0.59 0.51 0.45 0.42 0.33 0.31 0.30 0.24 0.21 0.20